Weather History for Lufkin, TX

Change the Weather History Date:

Thursday, April 24, 2014

  Actual Average Record
Temperature  
Mean Temperature 76 °F 69 °F  
Max Temperature 84 °F 80 °F 90 °F (1932)
Min Temperature 68 °F 57 °F 41 °F (2005)
Degree Days  
Heating Degree Days 0 1  
Month to date heating degree days 56 64  
Since 1 July heating degree days 2109 1908  
Cooling Degree Days 11 5  
Month to date cooling degree days 107 85  
Year to date cooling degree days 142 145  
Growing Degree Days 26 (Base 50)    
Moisture  
Dew Point 65 °F    
Average Humidity 71    
Maximum Humidity 90    
Minimum Humidity 51    
Precipitation  
Precipitation 0.01 in 0.11 in 1.85 in (1966)
Month to date precipitation 2.77 2.40  
Year to date precipitation 8.14 14.23  
Snow  
Snow 0.00 in - - ()
Month to date snowfall 0.0  
Since 1 July snowfall 3.2  
Snow Depth 0.00 in    
Sea Level Pressure  
Sea Level Pressure 29.85 in    
Wind  
Wind Speed 7 mph (South)    
Max Wind Speed 18 mph    
Max Gust Speed 24 mph    
Visibility 9 miles    
Events Rain , Thunderstorm    
T = Trace of Precipitation, MM = Missing Value Source: NWS Daily Summary

Daily Weather History Graph

Daily Weather History Graph

Search for Another Location

Airport:

Trip Planner

Search our weather history database for the weather conditions in past years. The results will help you decide how hot, cold, wet, or windy it might be!

Date:

Astronomy

Apr. 24, 2014 Rise Set
Actual Time 6:41 AM CDT 7:53 PM CDT
Civil Twilight 6:15 AM CDT 8:18 PM CDT
Nautical Twilight 5:45 AM CDT 8:49 PM CDT
Astronomical Twilight 5:14 AM CDT 9:20 PM CDT
Moon 3:33 AM CDT (4/24) 3:28 PM CDT (4/24)
Length of Visible Light 14h 03m
Length of Day
13h 12m
Waning Crescent, 24% of the Moon is Illuminated
Apr 24
Waning Crescent
Apr 29
New
May 6
First Quarter
May 14
Full
May 21
Last Quarter

Hourly Weather History & Observations

Time (CDT) Temp. Heat Index Dew Point Humidity Pressure Visibility Wind Dir Wind Speed Gust Speed Precip Events Conditions
12:53 AM 68.0 °F - 64.0 °F 87% 29.86 in 8.0 mi SSE 5.8 mph - N/A   Scattered Clouds
1:04 AM 68.0 °F - 64.0 °F 87% 29.88 in 7.0 mi SSE 4.6 mph - N/A   Mostly Cloudy
1:28 AM 68.0 °F - 64.0 °F 87% 29.87 in 7.0 mi SSE 6.9 mph - N/A   Scattered Clouds
1:53 AM 68.0 °F - 64.0 °F 87% 29.84 in 6.0 mi SSE 6.9 mph - N/A   Mostly Cloudy
2:26 AM 68.0 °F - 64.0 °F 87% 29.84 in 7.0 mi SSE 8.1 mph - N/A   Overcast
2:53 AM 68.0 °F - 64.0 °F 87% 29.83 in 8.0 mi South 8.1 mph - N/A   Overcast
3:53 AM 69.1 °F - 64.0 °F 84% 29.83 in 10.0 mi South 5.8 mph - N/A   Overcast
4:11 AM 69.1 °F - 64.0 °F 84% 29.84 in 10.0 mi SSE 5.8 mph - N/A   Overcast
4:53 AM 69.1 °F - 64.0 °F 84% 29.82 in 10.0 mi SSE 5.8 mph - N/A   Mostly Cloudy
5:53 AM 68.0 °F - 64.0 °F 87% 29.84 in 9.0 mi SE 3.5 mph - N/A   Overcast
6:53 AM 69.1 °F - 64.0 °F 84% 29.86 in 8.0 mi SE 4.6 mph - N/A   Overcast
7:31 AM 69.1 °F - 64.0 °F 84% 29.88 in 8.0 mi SSE 6.9 mph - N/A   Overcast
7:53 AM 70.0 °F - 64.9 °F 84% 29.87 in 9.0 mi SE 8.1 mph - N/A   Overcast
8:03 AM 70.0 °F - 64.9 °F 84% 29.89 in 9.0 mi SSE 8.1 mph - N/A   Overcast
8:33 AM 71.1 °F - 64.9 °F 81% 29.88 in 9.0 mi SSE 9.2 mph - N/A   Scattered Clouds
8:53 AM 72.0 °F - 64.9 °F 78% 29.86 in 10.0 mi SSE 8.1 mph - N/A   Mostly Cloudy
9:42 AM 73.9 °F - 64.9 °F 73% 29.87 in 10.0 mi South 12.7 mph - N/A   Overcast
9:53 AM 75.0 °F - 64.9 °F 71% 29.86 in 10.0 mi South 13.8 mph 19.6 mph N/A   Overcast
10:53 AM 79.0 °F - 64.9 °F 62% 29.85 in 10.0 mi South 15.0 mph - N/A   Mostly Cloudy
11:25 AM 79.0 °F - 64.0 °F 60% 29.89 in 10.0 mi SW 10.4 mph 20.7 mph N/A Thunderstorm Mostly Cloudy
11:48 AM 75.2 °F - 64.4 °F 69% 29.88 in 8.0 mi South 9.2 mph - 0.01 in Rain , Thunderstorm Light Thunderstorms and Rain
11:53 AM 75.9 °F - 64.9 °F 69% 29.86 in 7.0 mi South 8.1 mph - 0.01 in Rain , Thunderstorm Light Thunderstorms and Rain
12:07 PM 75.0 °F - 66.0 °F 73% 29.87 in 10.0 mi SSW 5.8 mph - 0.00 in Rain Light Rain
12:53 PM 82.9 °F 84.4 °F 64.0 °F 53% 29.85 in 10.0 mi South 15.0 mph 24.2 mph 0.00 in   Partly Cloudy
1:53 PM 84.0 °F 85.8 °F 64.9 °F 53% 29.83 in 10.0 mi SSW 11.5 mph 19.6 mph N/A   Scattered Clouds
2:53 PM 81.0 °F 82.5 °F 64.0 °F 56% 29.83 in 10.0 mi SW 12.7 mph - N/A   Overcast
3:53 PM 80.1 °F 81.9 °F 64.9 °F 60% 29.83 in 10.0 mi SW 8.1 mph - N/A   Overcast
4:53 PM 79.0 °F - 64.9 °F 62% 29.83 in 10.0 mi WSW 10.4 mph - N/A   Overcast
5:53 PM 81.0 °F 83.0 °F 66.0 °F 60% 29.81 in 10.0 mi SSW 9.2 mph - N/A   Clear
6:53 PM 80.1 °F 82.1 °F 66.0 °F 62% 29.81 in 10.0 mi SSW 9.2 mph - N/A   Clear
7:53 PM 77.0 °F - 66.9 °F 71% 29.82 in 10.0 mi ESE 3.5 mph - N/A   Partly Cloudy
8:53 PM 73.0 °F - 66.9 °F 81% 29.85 in 10.0 mi SE 4.6 mph - N/A   Partly Cloudy
9:53 PM 73.0 °F - 66.9 °F 81% 29.88 in 10.0 mi Calm Calm - N/A   Partly Cloudy
10:53 PM 69.1 °F - 64.9 °F 87% 29.90 in 5.0 mi Calm Calm - N/A   Clear
11:53 PM 70.0 °F - 66.0 °F 87% 29.91 in 7.0 mi Calm Calm - N/A   Partly Cloudy